Location: L�Adrech
(44.2500°N, 6.4167°E)
Time: 20:12:00
(UTC+00:00)

USA 229 - Pass Details

Date: 07 June 2020
Orbit: 980 x 1233 km, 63.4° (Epoch: 24 June)

Event Time Altitude Azimuth Distance (km) Brightness Sun altitude
Rises 01:07:10 0° 322° (NW) 3,953 7.1 -19.6°
Reaches altitude 10° 01:09:48 10° 324° (NW) 3,027 6.4 -19.4°
Maximum altitude 01:17:06 82° 52° (NE) 1,198 4.0 -18.9°
Drops below altitude 10° 01:24:46 10° 141° (SE) 3,163 5.9 -18.3°
Sets 01:27:34 0° 142° (SE) 4,139 6.5 -18.0°
